• En España
  • Lista de países
  • Para 7 días
  • Temperatura del agua
  • Mapa Satelital
  • El tiempo en el mapa
  • Informadores
  • user-avatar
    Iniciar sesión

    Tiempo cada hora Brodilovka

    Hoy, 23 Octubre, Martes

    Tiempo Temperatura Precipitaciones Viento Presión Humedad
    00:00 +5°C° 0 mm 2 mps 744 mmHg 75%
    01:00 +4°C° 0 mm 2 mps 743 mmHg 76%
    02:00 +4°C° 0 mm 2 mps 742 mmHg 77%
    03:00 +4°C° 0 mm 2 mps 742 mmHg 79%
    04:00 +3°C° 0 mm 2 mps 741 mmHg 80%
    05:00 +3°C° 0 mm 2 mps 740 mmHg 81%
    06:00 +3°C° 0 mm 2 mps 740 mmHg 82%
    07:00 +2°C° 0 mm 3 mps 739 mmHg 80%
    08:00 +3°C° 0 mm 4 mps 739 mmHg 78%
    09:00 +3°C° 0 mm 4 mps 739 mmHg 76%
    10:00 +3°C° 0 mm 5 mps 738 mmHg 72%
    11:00 +5°C° 0 mm 5 mps 738 mmHg 69%
    12:00 +7°C° 0 mm 5 mps 738 mmHg 65%
    13:00 +7°C° 0 mm 5 mps 737 mmHg 65%
    14:00 +7°C° 0 mm 5 mps 736 mmHg 64%
    15:00 +7°C° 0 mm 5 mps 736 mmHg 64%
    16:00 +7°C° 0 mm 5 mps 735 mmHg 68%
    17:00 +6°C° 0 mm 5 mps 735 mmHg 71%
    18:00 +5°C° 0 mm 4 mps 734 mmHg 75%
    19:00 +5°C° 0.1 mm 4 mps 734 mmHg 77%
    20:00 +5°C° 0.1 mm 4 mps 733 mmHg 78%
    21:00 +5°C° 0.1 mm 4 mps 733 mmHg 80%
    22:00 +5°C° 0 mm 4 mps 732 mmHg 81%
    23:00 +5°C° 0 mm 5 mps 731 mmHg 81%

    Mañana, 24 Octubre, Miércoles

    Tiempo Temperatura Precipitaciones Viento Presión Humedad
    00:00 +5°C° 0 mm 5 mps 730 mmHg 82%
    01:00 +5°C° 0.1 mm 5 mps 730 mmHg 80%
    02:00 +5°C° 0.1 mm 5 mps 729 mmHg 78%
    03:00 +5°C° 0.1 mm 5 mps 728 mmHg 76%
    04:00 +3°C° 0.1 mm 5 mps 727 mmHg 77%
    05:00 +3°C° 0.1 mm 5 mps 726 mmHg 77%
    06:00 +3°C° 0.1 mm 6 mps 725 mmHg 77%
    07:00 +3°C° 0.2 mm 6 mps 725 mmHg 78%
    08:00 +4°C° 0.2 mm 6 mps 724 mmHg 78%
    09:00 +4°C° 0.2 mm 7 mps 723 mmHg 78%
    10:00 +4°C° 0.5 mm 7 mps 723 mmHg 79%
    11:00 +5°C° 0.5 mm 7 mps 722 mmHg 80%
    12:00 +5°C° 0.5 mm 8 mps 722 mmHg 81%
    13:00 +5°C° 0.4 mm 7 mps 722 mmHg 80%
    14:00 +6°C° 0.4 mm 7 mps 721 mmHg 80%
    15:00 +7°C° 0.4 mm 6 mps 721 mmHg 79%
    16:00 +7°C° 0.2 mm 6 mps 721 mmHg 82%
    17:00 +6°C° 0.2 mm 5 mps 721 mmHg 84%
    18:00 +6°C° 0.2 mm 4 mps 721 mmHg 87%
    19:00 +6°C° 0.7 mm 4 mps 721 mmHg 89%
    20:00 +7°C° 0.7 mm 3 mps 721 mmHg 90%
    21:00 +7°C° 0.7 mm 3 mps 721 mmHg 92%
    22:00 +7°C° 0.6 mm 3 mps 720 mmHg 92%
    23:00 +7°C° 0.6 mm 3 mps 720 mmHg 93%

    Pasado mañana, 25 Octubre, Jueves

    Tiempo Temperatura Precipitaciones Viento Presión Humedad
    00:00 +7°C° 0.6 mm 2 mps 719 mmHg 94%
    01:00 +7°C° 1.6 mm 3 mps 719 mmHg 94%
    02:00 +6°C° 1.6 mm 4 mps 718 mmHg 95%
    03:00 +6°C° 1.6 mm 4 mps 718 mmHg 95%
    04:00 +6°C° 2.6 mm 5 mps 717 mmHg 93%
    05:00 +5°C° 2.6 mm 6 mps 716 mmHg 92%
    06:00 +5°C° 2.6 mm 6 mps 716 mmHg 90%
    07:00 +5°C° 0.7 mm 6 mps 715 mmHg 89%
    08:00 +4°C° 0.7 mm 7 mps 715 mmHg 87%
    09:00 +4°C° 0.7 mm 7 mps 715 mmHg 86%
    10:00 +4°C° 0.8 mm 8 mps 715 mmHg 85%
    11:00 +3°C° 0.8 mm 9 mps 715 mmHg 84%
    12:00 +2°C° 0.8 mm 9 mps 715 mmHg 84%
    13:00 +2°C° 0.8 mm 10 mps 716 mmHg 82%
    14:00 +2°C° 0.8 mm 10 mps 717 mmHg 80%
    15:00 +2°C° 0.8 mm 10 mps 718 mmHg 78%
    16:00 +1°C° 0.1 mm 9 mps 719 mmHg 77%
    17:00 +1°C° 0.1 mm 9 mps 720 mmHg 77%
    18:00 +1°C° 0.1 mm 8 mps 721 mmHg 76%
    19:00 +1°C° 0 mm 8 mps 722 mmHg 76%
    20:00 0°C° 0 mm 7 mps 723 mmHg 75%
    21:00 0°C° 0 mm 7 mps 724 mmHg 75%
    22:00 +1°C° 0 mm 6 mps 724 mmHg 75%
    23:00 +1°C° 0 mm 6 mps 725 mmHg 75%

    26 Octubre, Viernes

    Tiempo Temperatura Precipitaciones Viento Presión Humedad
    00:00 +1°C° 0 mm 6 mps 726 mmHg 75%
    01:00 +1°C° 0 mm 6 mps 726 mmHg 76%
    02:00 +1°C° 0 mm 6 mps 726 mmHg 76%
    03:00 -1°C° 0 mm 6 mps 727 mmHg 76%
    04:00 -1°C° 0 mm 6 mps 727 mmHg 77%
    05:00 -1°C° 0 mm 6 mps 728 mmHg 78%
    06:00 -1°C° 0 mm 6 mps 728 mmHg 80%
    07:00 -1°C° 0 mm 6 mps 729 mmHg 80%
    08:00 -1°C° 0 mm 6 mps 730 mmHg 81%
    09:00 -1°C° 0 mm 6 mps 730 mmHg 82%
    10:00 -1°C° 0 mm 6 mps 731 mmHg 80%
    11:00 +1°C° 0 mm 6 mps 732 mmHg 78%
    12:00 +1°C° 0 mm 5 mps 732 mmHg 77%
    13:00 +2°C° 0 mm 5 mps 732 mmHg 74%
    14:00 +2°C° 0 mm 5 mps 733 mmHg 72%
    15:00 +3°C° 0 mm 5 mps 733 mmHg 69%
    16:00 +3°C° 0.1 mm 5 mps 734 mmHg 72%
    17:00 +3°C° 0.1 mm 4 mps 734 mmHg 76%
    18:00 +3°C° 0.1 mm 4 mps 735 mmHg 79%
    19:00 +3°C° 0.2 mm 4 mps 735 mmHg 80%
    20:00 +1°C° 0.2 mm 4 mps 735 mmHg 82%
    21:00 +1°C° 0.2 mm 5 mps 736 mmHg 83%
    22:00 +1°C° 0 mm 4 mps 736 mmHg 84%
    23:00 +1°C° 0 mm 4 mps 737 mmHg 84%

    27 Octubre, Sábado

    Tiempo Temperatura Precipitaciones Viento Presión Humedad
    00:00 +1°C° 0 mm 4 mps 737 mmHg 85%
    01:00 0°C° 0 mm 4 mps 738 mmHg 85%
    02:00 0°C° 0 mm 4 mps 738 mmHg 86%
    03:00 0°C° 0 mm 4 mps 739 mmHg 86%
    04:00 0°C° 0 mm 4 mps 739 mmHg 88%
    05:00 -1°C° 0 mm 4 mps 740 mmHg 90%
    06:00 -1°C° 0 mm 4 mps 740 mmHg 92%
    07:00 -1°C° 0 mm 4 mps 741 mmHg 91%
    08:00 0°C° 0 mm 4 mps 741 mmHg 90%
    09:00 0°C° 0 mm 4 mps 741 mmHg 88%
    10:00 +1°C° 0 mm 4 mps 742 mmHg 84%
    11:00 +3°C° 0 mm 5 mps 742 mmHg 80%
    12:00 +5°C° 0 mm 5 mps 742 mmHg 76%
    13:00 +5°C° 0 mm 5 mps 742 mmHg 75%
    14:00 +6°C° 0 mm 5 mps 742 mmHg 74%
    15:00 +5°C° 0 mm 6 mps 742 mmHg 74%
    16:00 +6°C° 0 mm 5 mps 742 mmHg 76%
    17:00 +5°C° 0 mm 5 mps 742 mmHg 78%
    18:00 +5°C° 0 mm 5 mps 741 mmHg 80%
    19:00 +5°C° 0 mm 5 mps 741 mmHg 80%
    20:00 +4°C° 0 mm 6 mps 741 mmHg 80%
    21:00 +4°C° 0 mm 6 mps 741 mmHg 81%
    22:00 +4°C° 0 mm 6 mps 740 mmHg 83%
    23:00 +4°C° 0 mm 6 mps 740 mmHg 85%

    28 Octubre, Domingo

    Tiempo Temperatura Precipitaciones Viento Presión Humedad
    00:00 +4°C° 0 mm 6 mps 740 mmHg 87%
    01:00 +5°C° 0.2 mm 6 mps 739 mmHg 89%
    02:00 +5°C° 0.2 mm 6 mps 739 mmHg 90%
    03:00 +6°C° 0.2 mm 7 mps 739 mmHg 91%
    04:00 +8°C° 0.1 mm 7 mps 739 mmHg 92%
    05:00 +8°C° 0.1 mm 7 mps 738 mmHg 92%
    06:00 +9°C° 0.1 mm 7 mps 738 mmHg 92%
    07:00 +9°C° 0.1 mm 7 mps 738 mmHg 92%
    08:00 +9°C° 0.1 mm 7 mps 738 mmHg 91%
    09:00 +9°C° 0.1 mm 8 mps 738 mmHg 90%
    10:00 +10°C° 0 mm 8 mps 738 mmHg 88%
    11:00 +10°C° 0 mm 8 mps 738 mmHg 86%
    12:00 +10°C° 0 mm 8 mps 738 mmHg 84%
    13:00 +11°C° 0 mm 8 mps 738 mmHg 82%
    14:00 +11°C° 0 mm 8 mps 738 mmHg 79%
    15:00 +12°C° 0 mm 8 mps 738 mmHg 76%
    16:00 +12°C° 0 mm 8 mps 738 mmHg 77%
    17:00 +12°C° 0 mm 7 mps 737 mmHg 77%
    18:00 +12°C° 0 mm 7 mps 737 mmHg 77%
    19:00 +12°C° 0 mm 7 mps 737 mmHg 77%
    20:00 +12°C° 0 mm 7 mps 737 mmHg 76%
    21:00 +12°C° 0 mm 7 mps 737 mmHg 76%
    22:00 +12°C° 0.1 mm 7 mps 737 mmHg 77%
    23:00 +12°C° 0.1 mm 7 mps 737 mmHg 78%

    29 Octubre, Lunes

    Tiempo Temperatura Precipitaciones Viento Presión Humedad
    00:00 +12°C° 0.1 mm 7 mps 738 mmHg 80%
    01:00 +12°C° 0.3 mm 7 mps 738 mmHg 83%
    02:00 +12°C° 0.3 mm 7 mps 738 mmHg 85%
    03:00 +13°C° 0.3 mm 6 mps 738 mmHg 88%
    04:00 +13°C° 0 mm 6 mps 739 mmHg 89%
    05:00 +11°C° 0 mm 6 mps 739 mmHg 89%
    06:00 +11°C° 0 mm 6 mps 740 mmHg 90%
    07:00 +10°C° 0 mm 6 mps 741 mmHg 87%
    08:00 +10°C° 0 mm 6 mps 742 mmHg 84%
    09:00 +9°C° 0 mm 5 mps 742 mmHg 81%
    10:00 +9°C° 0 mm 5 mps 743 mmHg 77%
    11:00 +8°C° 0 mm 5 mps 744 mmHg 73%
    12:00 +8°C° 0 mm 4 mps 745 mmHg 69%
    13:00 +8°C° 0 mm 4 mps 745 mmHg 68%
    14:00 +9°C° 0 mm 3 mps 746 mmHg 66%
    15:00 +9°C° 0 mm 2 mps 746 mmHg 65%
    16:00 +9°C° 0 mm 2 mps 747 mmHg 67%
    17:00 +9°C° 0 mm 1 mps 747 mmHg 70%
    18:00 +9°C° 0 mm 1 mps 747 mmHg 72%
    19:00 +9°C° 0.1 mm 1 mps 748 mmHg 74%
    20:00 +8°C° 0.1 mm 0 mps 748 mmHg 75%
    21:00 +7°C° 0.1 mm 0 mps 748 mmHg 77%
    22:00 +8°C° 0.1 mm 1 mps 748 mmHg 78%
    23:00 +8°C° 0.1 mm 1 mps 748 mmHg 79%
    Mostrar más